GALAXY 3R

导读

GALAXY 3R(银河3R)是由美国休斯公司研发,泛美卫星公司运营的通信卫星,由美加合作,于1995年12月15日在美国卡纳维拉尔角用宇宙神2A火箭成功发射。卫星重3069千克,设计最低寿命8年,运行在地球静止轨道,主要为美国全境提供视频和电信服务,其Ku波段容量可切换覆盖拉美地区,是银河卫星系列的重要成员。

基本信息
目录编号:
23741
目录名称:
GALAXY 3R
国际标识:
1995-069A
轨道中心:
EARTH
卫星名称:
GALAXY 3R
卫星全名:
--
卫星状态:
在轨 (已飞行11137 天)
发射日期:
1995-12-15 UTC
国别 :
美国 (US)
星等 :
--
轨道信息
数据来源 国际轨道数据 AOE轨道数据
星历时间 2026-06-12T12:05:26+0800
15小时前
查看轨道信息
2026-06-10T15:00:00+0800
2天前
查看轨道信息
半长轴 42148.981km 42148.785km
偏心率 0.0004111 0.0003994
轨道倾角 13.284° 13.283°
近地点辐角 79.004° 80.031°
升交点赤经 16.275° 16.290°
平近点角 115.839° 156.216°
近地点 35753.516km 35753.813km
远地点 35788.172km 35787.483km
周期 1435.292分钟 1435.282分钟
每日圈数 1.00328 1.003287
详细信息
使用方式:
暂无
2D轨道图
3D轨道图
轨道高度分析图
轨道倾角分析图
轨道综合分析图
查看轨道综合分析图